This is the latest recevied weather packets stored in our database for station/object KF7ROW. If no packets are shown the sender has not sent any weather packets the latest 10 day(s).
| Time | Temp. | Humidity | Pressure | Rain* | Wind** | Luminosity | Snow |
|---|---|---|---|---|---|---|---|
| 1788147692 | 60° F | 86% | 763 mmHg | 0 in | - | 0 W/m² | - |
| 1788147388 | 61° F | 86% | 763 mmHg | 0 in | - | 0 W/m² | - |
| 1788147083 | 61° F | 86% | 762.9 mmHg | 0 in | - | 0 W/m² | - |
| 1788146777 | 61° F | 85% | 763 mmHg | 0 in | - | 0 W/m² | - |
| 1788146473 | 62° F | 84% | 763 mmHg | 0 in | - | 0 W/m² | - |
| 1788146172 | 62° F | 83% | 762.9 mmHg | 0 in | - | 0 W/m² | - |
| 1788145871 | 63° F | 81% | 763 mmHg | 0 in | - | 0 W/m² | - |
| 1788145571 | 63° F | 80% | 763 mmHg | 0 in | - | 1 W/m² | - |
| 1788145270 | 64° F | 79% | 763 mmHg | 0 in | - | 2 W/m² | - |
| 1788144969 | 64° F | 79% | 763 mmHg | 0 in | - | 3 W/m² | - |
| 1788144664 | 65° F | 78% | 763 mmHg | 0 in | - | 5 W/m² | - |
| 1788144360 | 65° F | 77% | 763 mmHg | 0 in | - | 7 W/m² | - |
| 1788144058 | 66° F | 75% | 763 mmHg | 0 in | - | 10 W/m² | - |
| 1788143757 | 66° F | 75% | 763 mmHg | 0 in | - | 12 W/m² | - |
| 1788143457 | 66° F | 74% | 763 mmHg | 0 in | - | 15 W/m² | - |
| 1788143151 | 67° F | 73% | 763.1 mmHg | 0 in | - | 19 W/m² | - |
| 1788142847 | 67° F | 72% | 763 mmHg | 0 in | - | 20 W/m² | - |
| 1788142545 | 67° F | 72% | 763.2 mmHg | 0 in | - | 24 W/m² | - |
| 1788142241 | 67° F | 71% | 763 mmHg | 0 in | - | 28 W/m² | - |
| 1788141937 | 67° F | 70% | 763.3 mmHg | 0 in | - | 30 W/m² | - |
| 1788141631 | 67° F | 71% | 763.3 mmHg | 0 in | - | 31 W/m² | - |
| 1788141327 | 68° F | 69% | 763.3 mmHg | 0 in | - | 34 W/m² | - |
| 1788141022 | 68° F | 70% | 763.3 mmHg | 0 in | - | 34 W/m² | - |
| 1788140716 | 69° F | 67% | 763.4 mmHg | 0 in | - | 40 W/m² | - |
| 1788140412 | 70° F | 65% | 763.3 mmHg | 0 in | - | 63 W/m² | - |
* Rain latest hour (hover to see other rain measurements)
** Current wind speed in m/s (hover to see current wind gust speed)